QPF
0.00 0.00 0.00 0.00 0.00 0.00 0.00 0.00 0.00 0.00 0.00 0.00 0.00 0.00 0.00 0.00 0.00 0.00 0.00 0.00 0.00 0.00 0.00 0.00 0.01 0.00 0.00 0.00 0.00 0.00 0.00 0.00 0.00 0.00 0.00 0.00 0.00 0.00 0.00 0.00 0.00 0.00 0.00 0.00 0.00 0.00 0.00 0.00 0.00
0.00 0.00 0.00 0.00 0.00 0.00 0.00 0.00 0.00 0.00 0.00 0.00 0.00 0.00 0.00 0.00 0.00 0.00 0.00 0.00 0.00 0.00 0.00 0.00 0.00 0.00 0.00 0.00 0.00 0.00 0.00 0.00 0.00 0.00 0.00 0.00 0.00 0.00 0.00 0.00 0.00 0.00 0.00 0.00 0.00 0.00 0.00 0.00 0.00
0.00 0.00 0.00 0.00 0.00 0.00 0.00 0.00 0.00 0.00 0.00 0.00 0.00 0.00 0.00 0.00 0.00 0.00 0.00 0.00 0.00 0.00 0.00 0.00 0.00 0.00 0.00 0.00 0.00 0.00 0.00 0.00 0.00 0.00 0.00 0.00 0.00 0.00 0.00 0.00 0.00 0.00 0.00 0.00 0.00 0.00 0.00 0.00 0.00
0.00 0.00 0.00 0.00 0.00 0.00 0.00 0.00 0.00 0.00 0.00 0.00 0.00 0.00 0.00 0.00 0.00 0.00 0.00 0.00 0.00 0.00 0.00 0.00 0.00 0.00 0.00 0.00 0.00 0.00 0.00 0.00 0.00 0.00 0.00 0.00 0.00 0.00 0.00 0.00 0.00 0.00 0.00 0.00 0.00 0.00 0.00 0.00 0.00
0.00 0.00 0.00 0.00 0.00 0.00 0.00 0.00 0.00 0.00 0.00 0.00 0.00 0.00 0.00 0.00 0.00 0.00 0.00 0.00 0.00 0.00 0.00 0.00 0.00 0.00 0.00 0.00 0.00 0.00 0.00 0.00 0.00 0.00 0.00 0.00 0.00 0.00 0.00 0.00 0.00 0.00 0.00 0.00 0.00 0.00 0.00 0.00 0.00
0.00 0.00 0.00 0.00 0.00 0.00 0.00 0.00 0.00 0.00 0.00 0.00 0.00 0.00 0.00 0.00 0.00 0.00 0.00 0.00 0.00 0.00 0.00 0.00 0.00 0.00 0.00 0.00 0.00 0.00 0.00 0.00 0.00 0.00 0.00 0.00 0.00 0.00 0.00 0.00 0.00 0.00 0.00 0.00 0.00 0.00 0.00 0.00 0.00
0.00 0.00 0.00 0.00 0.00 0.00 0.00 0.00 0.00 0.00 0.00 0.00 0.00 0.00 0.00 0.00 0.00 0.00 0.00 0.00 0.00 0.00 0.00 0.00 0.00 0.00 0.00 0.00 0.00 0.00 0.00 0.00 0.00 0.00 0.00 0.00 0.00 0.00 0.00 0.00 0.00 0.00 0.00 0.00 0.00 0.00 0.00 0.00 0.00
0.00 0.00 0.00 0.00 0.00 0.00 0.00 0.00 0.00 0.00 0.00 0.00 0.00 0.00 0.00 0.00 0.00 0.00 0.00 0.00 0.00 0.00 0.00 0.00 0.00 0.00 0.00 0.00 0.00 0.00 0.00 0.00 0.00 0.00 0.00 0.00 0.00 0.00 0.00 0.00 0.00 0.00 0.00 0.00 0.00 0.00 0.00 0.00 0.00
0.00 0.00 0.00 0.00 0.00 0.00 0.00 0.00 0.00 0.00 0.00 0.00 0.00 0.00 0.00 0.00 0.00 0.00 0.00 0.00 0.00 0.00 0.00 0.00 0.00 0.00 0.00 0.00 0.00 0.00 0.00 0.00 0.00 0.00 0.00 0.00 0.00 0.00 0.00 0.00 0.00 0.00 0.00 0.00 0.00 0.00 0.00 0.00 0.00
0.00 0.00 0.00 0.00 0.00 0.00 0.00 0.00 0.00 0.00 0.00 0.00 0.00 0.00 0.00 0.00 0.00 0.00 0.00 0.00 0.00 0.00 0.00 0.00 0.00 0.00 0.00 0.00 0.00 0.00 0.00 0.00 0.00 0.00 0.00 0.00 0.00 0.00 0.00 0.00 0.00 0.00 0.00 0.00 0.00 0.00 0.00 0.00 0.00
0.00 0.00 0.00 0.00 0.00 0.00 0.00 0.00 0.00 0.00 0.00 0.00 0.00 0.00 0.00 0.00 0.00 0.00 0.00 0.00 0.00 0.00 0.00 0.00 0.00 0.00 0.00 0.00 0.00 0.00 0.00 0.00 0.00 0.00 0.00 0.00 0.00 0.00 0.00 0.00 0.00 0.00 0.00 0.00 0.00 0.00 0.00 0.00 0.00
0.00 0.00 0.00 0.00 0.00 0.00 0.00 0.00 0.00 0.00 0.00 0.00 0.00 0.00 0.00 0.00 0.00 0.00 0.00 0.00 0.00 0.00 0.00 0.00 0.00 0.00 0.00 0.00 0.00 0.00 0.00 0.00 0.00 0.00 0.00 0.00 0.00 0.00 0.00 0.00 0.00 0.00 0.00 0.00 0.00 0.00 0.00 0.00 0.00
0.00 0.00 0.00 0.00 0.00 0.00 0.00 0.00 0.00 0.00 0.00 0.00 0.00 0.00 0.00 0.00 0.00 0.00 0.00 0.00 0.00 0.00 0.00 0.00 0.00 0.00 0.00 0.00 0.00 0.00 0.00 0.00 0.00 0.00 0.00 0.00 0.00 0.00 0.00 0.00 0.00 0.00 0.00 0.00 0.00 0.00 0.00 0.00 0.00
0.00 0.00 0.00 0.00 0.00 0.00 0.00 0.00 0.00 0.00 0.00 0.00 0.00 0.00 0.00 0.00 0.00 0.00 0.00 0.00 0.00 0.00 0.00 0.00 0.00 0.00 0.00 0.00 0.00 0.00 0.00 0.00 0.00 0.00 0.00 0.00 0.00 0.00 0.00 0.00 0.00 0.00 0.00 0.00 0.00 0.00 0.00 0.00 0.00
0.00 0.00 0.00 0.00 0.00 0.00 0.00 0.00 0.00 0.00 0.00 0.00 0.00 0.00 0.00 0.00 0.00 0.00 0.00 0.00 0.00 0.00 0.00 0.00 0.00 0.00 0.00 0.00 0.00 0.00 0.00 0.00 0.00 0.00 0.00 0.00 0.00 0.00 0.00 0.00 0.00 0.00 0.00 0.00 0.00 0.00 0.01 0.01 0.01
0.00 0.00 0.00 0.00 0.00 0.00 0.00 0.00 0.00 0.00 0.00 0.00 0.00 0.00 0.00 0.00 0.00 0.00 0.00 0.00 0.00 0.00 0.00 0.00 0.00 0.00 0.00 0.00 0.00 0.00 0.00 0.00 0.00 0.00 0.00 0.00 0.00 0.00 0.00 0.00 0.00 0.00 0.00 0.00 0.00 0.00 0.00 0.01 0.00
0.00 0.00 0.00 0.00 0.00 0.00 0.00 0.00 0.00 0.00 0.00 0.00 0.00 0.00 0.00 0.00 0.00 0.00 0.00 0.00 0.00 0.00 0.00 0.00 0.00 0.00 0.00 0.00 0.00 0.00 0.00 0.00 0.00 0.00 0.00 0.00 0.00 0.00 0.00 0.00 0.00 0.00 0.00 0.00 0.00 0.00 0.00 0.00 0.01
0.00 0.00 0.00 0.00 0.00 0.00 0.00 0.00 0.00 0.00 0.00 0.00 0.00 0.00 0.00 0.00 0.00 0.00 0.00 0.00 0.00 0.00 0.00 0.00 0.00 0.00 0.00 0.00 0.00 0.00 0.00 0.00 0.00 0.00 0.00 0.00 0.00 0.00 0.00 0.00 0.00 0.00 0.00 0.00 0.00 0.00 0.00 0.00 0.00
0.00 0.00 0.00 0.00 0.00 0.00 0.00 0.00 0.00 0.00 0.00 0.00 0.00 0.00 0.00 0.00 0.00 0.00 0.00 0.00 0.00 0.00 0.00 0.00 0.00 0.00 0.00 0.00 0.00 0.00 0.00 0.00 0.00 0.00 0.00 0.00 0.00 0.00 0.00 0.00 0.00 0.00 0.00 0.00 0.00 0.00 0.00 0.00 0.00
0.00 0.00 0.00 0.00 0.00 0.00 0.00 0.00 0.00 0.00 0.00 0.00 0.00 0.00 0.00 0.00 0.00 0.00 0.00 0.00 0.00 0.00 0.00 0.00 0.00 0.00 0.00 0.00 0.00 0.00 0.00 0.00 0.00 0.00 0.00 0.00 0.00 0.00 0.00 0.00 0.00 0.00 0.00 0.00 0.00 0.00 0.00 0.00 0.00
0.00 0.00 0.00 0.00 0.00 0.00 0.00 0.00 0.00 0.00 0.00 0.00 0.00 0.00 0.00 0.00 0.00 0.00 0.00 0.00 0.00 0.00 0.00 0.00 0.00 0.00 0.00 0.00 0.00 0.00 0.00 0.00 0.00 0.00 0.00 0.00 0.00 0.00 0.00 0.00 0.00 0.00 0.00 0.00 0.00 0.00 0.00 0.00 0.00
0.00 0.00 0.00 0.00 0.00 0.00 0.00 0.00 0.00 0.00 0.00 0.00 0.00 0.00 0.00 0.00 0.00 0.00 0.00 0.00 0.00 0.00 0.00 0.00 0.00 0.00 0.00 0.00 0.00 0.00 0.00 0.00 0.00 0.00 0.00 0.00 0.00 0.00 0.00 0.00 0.00 0.00 0.00 0.00 0.00 0.00 0.00 0.00 0.00
0.00 0.00 0.00 0.00 0.00 0.00 0.00 0.00 0.00 0.00 0.00 0.00 0.00 0.00 0.00 0.00 0.00 0.00 0.00 0.00 0.00 0.00 0.00 0.00 0.00 0.00 0.00 0.00 0.00 0.00 0.00 0.00 0.00 0.00 0.00 0.00 0.00 0.00 0.00 0.00 0.00 0.00 0.00 0.00 0.00 0.00 0.00 0.00 0.00
0.00 0.00 0.00 0.00 0.00 0.00 0.00 0.00 0.00 0.00 0.00 0.00 0.00 0.00 0.00 0.00 0.00 0.00 0.00 0.00 0.00 0.00 0.00 0.00 0.00 0.00 0.00 0.00 0.00 0.00 0.00 0.00 0.00 0.00 0.00 0.00 0.00 0.00 0.00 0.00 0.00 0.00 0.00 0.00 0.00 0.00 0.00 0.00 0.00
0.00 0.00 0.00 0.00 0.00 0.00 0.00 0.00 0.00 0.00 0.00 0.00 0.00 0.00 0.00 0.00 0.00 0.00 0.00 0.00 0.00 0.00 0.00 0.00 0.00 0.00 0.00 0.00 0.00 0.00 0.00 0.00 0.00 0.00 0.00 0.00 0.00 0.00 0.00 0.00 0.00 0.00 0.00 0.00 0.00 0.00 0.00 0.00 0.00
0.00 0.00 0.00 0.00 0.00 0.00 0.00 0.00 0.00 0.00 0.00 0.00 0.00 0.00 0.00 0.00 0.00 0.00 0.00 0.00 0.00 0.00 0.00 0.00 0.00 0.00 0.00 0.00 0.00 0.00 0.00 0.00 0.00 0.00 0.00 0.00 0.00 0.00 0.00 0.00 0.00 0.00 0.00 0.00 0.00 0.00 0.00 0.00 0.00
0.00 0.00 0.00 0.00 0.00 0.00 0.00 0.00 0.00 0.00 0.00 0.00 0.00 0.00 0.00 0.00 0.00 0.00 0.00 0.00 0.00 0.00 0.00 0.00 0.00 0.00 0.00 0.00 0.00 0.00 0.00 0.00 0.00 0.00 0.00 0.00 0.00 0.00 0.00 0.00 0.00 0.00 0.00 0.00 0.00 0.00 0.00 0.00 0.00
0.00 0.00 0.00 0.00 0.00 0.00 0.00 0.00 0.00 0.00 0.00 0.00 0.00 0.00 0.00 0.00 0.00 0.00 0.00 0.00 0.00 0.00 0.00 0.00 0.00 0.00 0.00 0.00 0.00 0.00 0.00 0.00 0.00 0.00 0.00 0.00 0.00 0.00 0.00 0.00 0.00 0.00 0.00 0.00 0.00 0.00 0.00 0.00 0.00
0.00 0.00 0.00 0.00 0.00 0.00 0.00 0.00 0.00 0.00 0.00 0.00 0.00 0.00 0.00 0.00 0.00 0.00 0.00 0.00 0.00 0.00 0.00 0.00 0.00 0.00 0.00 0.00 0.00 0.00 0.00 0.00 0.00 0.00 0.00 0.00 0.00 0.00 0.00 0.00 0.00 0.00 0.00 0.00 0.00 0.00 0.00 0.00 0.00
0.00 0.00 0.00 0.00 0.00 0.00 0.00 0.00 0.00 0.00 0.00 0.00 0.00 0.00 0.00 0.00 0.00 0.00 0.00 0.00 0.00 0.00 0.00 0.00 0.00 0.00 0.00 0.00 0.00 0.00 0.00 0.00 0.00 0.00 0.00 0.00 0.00 0.00 0.00 0.00 0.00 0.00 0.00 0.00 0.00 0.00 0.00 0.00 0.00
MSLP
1011.72 1010.75 1010.36 1009.58 1008.52 1006.86 1005.21 1004.89 1005.11 1005.14 1005.46 1005.96 1006.39 1006.38 1006.43 1006.75 1007.21 1008.97 1010.41 1011.05 1010.96 1011.29 1012.44 1013.13 1013.42 1013.86 1014.40 1014.78 1014.92 1015.00 1015.07 1015.14 1015.22 1015.35 1015.46 1015.51 1015.53 1015.46 1015.40 1015.33 1015.25 1015.12 1014.92 1014.76 1014.65 1014.60 1014.59 1014.53 1014.51
1011.20 1010.68 1010.03 1008.55 1007.45 1005.46 1004.02 1004.58 1005.15 1005.24 1005.89 1006.52 1006.78 1006.85 1006.83 1007.07 1008.39 1009.82 1010.54 1011.32 1011.23 1011.56 1012.74 1013.42 1013.81 1014.24 1014.72 1014.94 1015.09 1015.22 1015.30 1015.41 1015.54 1015.65 1015.72 1015.76 1015.74 1015.72 1015.68 1015.60 1015.52 1015.43 1015.30 1015.16 1014.99 1014.86 1014.83 1014.84 1014.77
1011.41 1010.73 1009.19 1007.75 1006.41 1005.06 1004.15 1004.94 1004.91 1005.84 1006.49 1006.62 1006.80 1007.32 1007.33 1007.94 1009.05 1009.69 1010.68 1011.33 1011.41 1012.22 1013.13 1013.87 1014.11 1014.53 1014.87 1015.06 1015.28 1015.46 1015.63 1015.80 1015.95 1016.04 1016.04 1015.99 1015.97 1015.92 1015.90 1015.90 1015.84 1015.70 1015.46 1015.29 1015.11 1015.04 1014.92 1014.86 1014.79
1010.62 1009.89 1009.17 1007.85 1005.97 1005.44 1005.34 1005.23 1005.60 1006.07 1006.68 1007.02 1007.03 1007.15 1008.42 1009.57 1009.61 1010.06 1011.24 1011.54 1011.84 1013.05 1013.52 1014.20 1014.31 1014.63 1014.93 1015.23 1015.51 1015.71 1015.89 1016.09 1016.22 1016.29 1016.28 1016.24 1016.22 1016.27 1016.30 1016.22 1016.10 1015.99 1015.80 1015.56 1015.39 1015.21 1015.14 1014.98 1014.82
1010.54 1009.34 1007.97 1006.97 1005.98 1005.65 1005.67 1005.82 1006.24 1006.10 1006.23 1006.70 1007.31 1007.23 1008.48 1010.15 1010.70 1011.00 1011.44 1011.74 1012.04 1012.95 1013.85 1014.40 1014.65 1014.99 1015.25 1015.54 1015.78 1015.98 1016.21 1016.39 1016.52 1016.56 1016.63 1016.61 1016.59 1016.62 1016.61 1016.53 1016.36 1016.09 1015.90 1015.78 1015.59 1015.45 1015.23 1015.08 1014.92
1009.80 1009.05 1007.44 1006.24 1005.48 1005.66 1005.87 1005.97 1006.27 1006.34 1006.34 1006.94 1007.45 1007.72 1008.80 1010.61 1011.05 1011.30 1011.69 1011.97 1012.27 1012.98 1014.16 1014.63 1015.12 1015.42 1015.60 1015.81 1016.04 1016.29 1016.51 1016.72 1016.88 1016.92 1016.90 1016.87 1016.88 1016.91 1016.89 1016.75 1016.47 1016.23 1016.07 1015.87 1015.69 1015.45 1015.27 1015.03 1014.79
1009.72 1008.68 1007.18 1006.22 1005.81 1005.67 1005.80 1006.39 1006.48 1006.28 1006.41 1006.83 1007.44 1007.63 1009.17 1010.48 1011.44 1012.09 1012.00 1012.33 1012.68 1013.17 1014.13 1014.60 1015.01 1015.64 1015.94 1016.13 1016.29 1016.49 1016.71 1016.94 1017.20 1017.28 1017.31 1017.26 1017.15 1017.08 1017.08 1016.85 1016.59 1016.32 1016.21 1016.09 1015.82 1015.55 1015.23 1015.03 1014.87
1010.05 1008.82 1007.30 1006.64 1006.01 1005.79 1006.50 1006.91 1007.05 1006.91 1006.53 1007.49 1007.73 1007.49 1008.55 1010.13 1012.11 1012.43 1012.51 1012.76 1013.00 1013.53 1013.84 1014.24 1014.80 1015.34 1015.74 1016.27 1016.67 1016.83 1017.07 1017.29 1017.43 1017.48 1017.49 1017.36 1017.10 1017.09 1017.13 1016.95 1016.83 1016.62 1016.43 1016.18 1015.85 1015.54 1015.35 1015.07 1014.82
1010.77 1008.99 1007.22 1006.67 1006.61 1006.32 1007.21 1007.20 1007.33 1007.67 1007.41 1007.61 1007.93 1008.26 1009.49 1010.95 1012.38 1012.87 1013.14 1013.33 1013.45 1013.65 1013.94 1014.30 1014.73 1015.01 1015.41 1015.92 1016.76 1017.07 1017.30 1017.44 1017.48 1017.44 1017.48 1017.01 1016.81 1016.87 1016.82 1017.14 1017.07 1016.79 1016.59 1016.24 1015.90 1015.61 1015.32 1014.93 1014.39
1010.49 1008.84 1007.50 1007.34 1007.34 1007.35 1007.61 1007.76 1007.31 1007.56 1007.19 1007.35 1007.95 1009.22 1010.13 1011.40 1012.11 1012.57 1012.98 1013.23 1013.48 1013.57 1013.93 1014.38 1014.78 1015.09 1015.51 1015.83 1016.46 1016.55 1016.94 1016.89 1017.07 1017.21 1017.24 1017.10 1017.08 1017.32 1017.21 1017.01 1016.85 1016.69 1016.53 1015.98 1015.64 1015.25 1014.92 1014.49 1014.03
1010.24 1008.96 1008.38 1008.41 1008.82 1008.80 1008.40 1008.14 1007.96 1007.45 1006.73 1006.70 1006.89 1007.90 1009.83 1010.92 1011.51 1011.99 1012.41 1012.57 1012.91 1013.31 1013.88 1014.30 1014.71 1015.16 1015.51 1015.81 1016.25 1016.47 1016.63 1016.87 1017.04 1017.24 1017.31 1017.27 1017.21 1017.18 1016.94 1016.76 1016.58 1016.45 1016.24 1015.92 1015.72 1015.16 1014.81 1014.65 1014.27
1010.64 1009.59 1009.34 1009.47 1009.83 1009.69 1009.16 1008.50 1008.04 1007.51 1006.72 1006.87 1007.21 1007.60 1009.01 1009.95 1010.54 1010.98 1011.48 1011.82 1012.34 1012.94 1013.64 1014.32 1014.68 1015.18 1015.52 1015.87 1016.19 1016.33 1016.58 1016.90 1016.99 1017.27 1017.38 1017.27 1017.19 1017.22 1017.07 1016.84 1016.69 1016.52 1016.25 1016.21 1015.95 1015.45 1015.05 1014.71 1014.50
1010.85 1009.94 1009.90 1009.97 1010.17 1010.11 1009.73 1009.09 1008.44 1007.18 1006.87 1006.99 1007.47 1008.30 1008.54 1009.16 1009.62 1010.17 1010.67 1011.30 1011.99 1012.66 1013.32 1014.16 1014.68 1015.07 1015.51 1015.96 1016.26 1016.51 1016.76 1016.95 1017.24 1017.32 1017.48 1017.44 1017.31 1017.34 1017.15 1016.99 1016.81 1016.59 1016.43 1016.19 1015.74 1015.45 1015.18 1014.95 1014.53
1010.83 1010.42 1010.01 1009.82 1009.95 1009.98 1009.84 1008.85 1008.52 1006.61 1006.51 1006.48 1006.81 1007.67 1008.25 1008.53 1008.96 1009.56 1010.12 1010.85 1011.70 1012.41 1013.03 1013.79 1014.49 1014.94 1015.51 1015.93 1016.28 1016.64 1016.91 1017.23 1017.40 1017.48 1017.61 1017.71 1017.61 1017.49 1017.17 1016.94 1016.81 1016.73 1016.59 1016.27 1015.85 1015.39 1015.07 1014.68 1014.39
1011.29 1010.84 1009.86 1009.37 1009.66 1009.75 1009.71 1008.51 1007.15 1006.30 1006.44 1006.41 1006.69 1007.15 1007.54 1007.98 1008.47 1008.78 1009.51 1010.35 1011.35 1012.08 1012.84 1013.63 1014.35 1014.84 1015.39 1015.85 1016.31 1016.66 1017.09 1017.36 1017.46 1017.63 1017.77 1017.83 1017.77 1017.64 1017.49 1017.10 1017.02 1017.13 1016.68 1016.24 1015.97 1015.54 1015.29 1014.99 1014.85
1011.18 1010.82 1009.68 1008.71 1008.90 1009.83 1009.72 1006.97 1006.26 1006.13 1005.97 1005.97 1006.22 1006.37 1006.77 1007.44 1007.89 1008.45 1009.13 1010.01 1010.87 1011.67 1012.58 1013.54 1014.20 1014.90 1015.44 1015.89 1016.35 1016.73 1017.28 1017.39 1017.61 1017.74 1017.89 1018.14 1018.06 1017.90 1017.50 1017.30 1017.39 1017.14 1016.72 1016.30 1016.29 1016.05 1015.74 1015.51 1015.20
1010.67 1009.65 1009.13 1008.91 1009.38 1009.63 1009.43 1006.99 1006.23 1006.35 1006.27 1005.90 1005.54 1005.85 1006.14 1006.80 1007.51 1008.07 1008.86 1009.70 1010.38 1011.19 1012.14 1013.41 1014.24 1014.97 1015.53 1016.17 1016.55 1017.01 1017.36 1017.49 1017.68 1017.78 1017.96 1018.26 1018.24 1018.13 1017.71 1017.51 1017.50 1017.40 1016.89 1016.48 1016.53 1016.36 1016.09 1015.83 1015.61
1009.17 1009.06 1008.78 1008.75 1009.13 1009.48 1008.87 1007.39 1006.49 1005.97 1006.02 1005.75 1005.45 1005.57 1005.90 1006.26 1006.94 1007.75 1008.53 1009.50 1010.13 1010.78 1011.90 1013.09 1014.12 1014.85 1015.64 1016.32 1016.89 1017.24 1017.55 1017.68 1017.69 1017.72 1017.94 1018.23 1018.28 1018.23 1017.91 1017.62 1017.50 1017.42 1016.96 1016.68 1016.64 1016.55 1016.29 1016.00 1015.96
1009.39 1008.90 1008.68 1008.53 1009.29 1009.37 1008.28 1007.05 1006.17 1005.71 1005.26 1005.06 1005.11 1005.10 1005.42 1005.83 1006.37 1007.47 1008.52 1009.40 1010.11 1010.78 1011.65 1012.59 1013.65 1014.64 1015.43 1016.12 1016.68 1017.09 1017.23 1017.54 1017.86 1018.00 1018.27 1018.21 1018.39 1018.35 1018.15 1017.77 1017.60 1017.50 1017.28 1017.17 1017.05 1016.66 1016.35 1016.17 1016.10
1010.13 1009.63 1009.18 1009.17 1009.50 1009.48 1007.94 1006.50 1005.57 1005.17 1004.57 1004.42 1004.39 1004.35 1004.77 1005.52 1006.33 1007.51 1008.68 1009.45 1010.04 1010.69 1011.55 1012.48 1013.38 1014.44 1015.19 1015.75 1016.20 1016.59 1016.88 1017.31 1017.62 1018.09 1018.32 1018.34 1018.51 1018.51 1018.34 1018.12 1017.82 1017.67 1017.56 1017.42 1017.24 1017.16 1016.66 1016.31 1016.34
1009.99 1009.90 1009.74 1009.73 1009.85 1009.21 1008.42 1005.57 1004.11 1003.01 1003.21 1003.41 1003.62 1003.93 1004.24 1004.77 1005.91 1007.40 1008.45 1009.17 1009.81 1010.41 1011.28 1012.24 1013.24 1014.14 1014.82 1015.52 1016.23 1016.74 1017.18 1017.49 1017.80 1018.09 1018.21 1018.32 1018.49 1018.64 1018.66 1018.31 1018.02 1017.75 1017.68 1017.51 1017.53 1017.46 1016.99 1016.80 1016.53
1009.99 1009.85 1010.09 1010.27 1010.47 1009.38 1008.88 1005.12 1003.36 1002.65 1002.88 1003.11 1003.41 1003.87 1004.22 1005.08 1005.95 1006.72 1007.94 1008.89 1009.52 1010.27 1011.39 1012.28 1013.19 1013.96 1014.73 1015.39 1016.02 1016.30 1016.53 1016.84 1017.19 1017.57 1017.77 1018.21 1018.53 1018.64 1018.73 1018.54 1018.18 1018.08 1017.96 1017.78 1017.77 1017.70 1017.26 1017.11 1016.72
1010.06 1010.17 1010.56 1010.65 1010.63 1010.16 1008.71 1007.51 1003.08 1002.50 1002.37 1002.33 1002.34 1003.08 1003.99 1004.76 1005.96 1006.84 1007.94 1008.78 1009.50 1010.48 1011.43 1012.21 1013.23 1013.91 1014.63 1015.24 1015.68 1016.04 1016.40 1016.59 1017.07 1017.55 1017.74 1017.99 1018.37 1018.65 1018.69 1018.60 1018.35 1018.20 1018.07 1018.02 1017.97 1017.92 1017.43 1017.39 1017.04
1010.59 1010.81 1011.26 1011.29 1011.00 1009.92 1008.07 1007.05 1002.37 1001.74 1001.49 1001.58 1001.85 1002.67 1003.88 1005.12 1006.25 1007.14 1008.13 1009.00 1009.70 1010.67 1011.49 1012.22 1013.06 1013.84 1014.49 1015.07 1015.59 1015.93 1016.28 1016.66 1017.04 1017.39 1017.53 1017.85 1018.09 1018.52 1018.57 1018.54 1018.46 1018.33 1018.16 1018.14 1018.13 1018.11 1017.75 1017.74 1017.62
1010.62 1010.60 1011.38 1011.77 1011.15 1008.72 1007.30 1006.45 1002.34 1001.77 1001.49 1001.89 1002.20 1002.81 1003.94 1005.29 1006.26 1007.22 1008.25 1009.08 1009.91 1010.73 1011.38 1012.14 1012.91 1013.60 1014.33 1014.93 1015.43 1015.80 1016.14 1016.58 1016.86 1017.19 1017.28 1017.58 1017.95 1018.26 1018.42 1018.34 1018.51 1018.41 1018.34 1018.13 1017.94 1017.95 1017.97 1017.84 1017.93
1009.64 1009.53 1009.22 1009.47 1009.39 1008.29 1008.02 1004.81 1001.64 1001.38 1001.42 1002.14 1002.70 1003.22 1004.10 1005.26 1006.21 1007.13 1008.11 1008.92 1009.90 1010.68 1011.31 1011.94 1012.48 1013.35 1014.13 1014.73 1015.26 1015.70 1016.11 1016.43 1016.63 1017.00 1017.20 1017.41 1017.78 1018.25 1018.55 1018.37 1018.53 1018.45 1018.48 1018.39 1017.95 1018.02 1018.12 1018.18 1018.19
1009.25 1008.89 1008.84 1009.14 1009.25 1008.34 1005.72 1003.02 1001.61 1001.26 1001.51 1001.76 1002.55 1003.18 1004.00 1005.20 1006.08 1007.01 1007.83 1008.65 1009.60 1010.41 1011.20 1011.88 1012.37 1013.05 1013.80 1014.37 1015.07 1015.62 1015.98 1016.36 1016.68 1016.99 1017.39 1017.51 1017.86 1018.21 1018.55 1018.59 1018.51 1018.36 1018.45 1018.46 1018.30 1018.30 1018.35 1018.45 1018.51
1007.44 1007.92 1008.74 1008.64 1008.11 1007.23 1004.02 1001.99 1000.17 1000.66 1001.00 1001.43 1002.20 1003.31 1004.21 1005.28 1006.05 1006.82 1007.74 1008.59 1009.40 1010.20 1011.04 1011.82 1012.44 1013.02 1013.66 1014.16 1014.75 1015.42 1015.86 1016.28 1016.80 1017.11 1017.44 1017.60 1017.84 1018.20 1018.34 1018.62 1018.65 1018.53 1018.50 1018.51 1018.57 1018.60 1018.52 1018.65 1018.84
1007.48 1006.68 1006.38 1006.53 1005.98 1004.84 1003.11 1000.79 999.61 999.54 999.92 1000.51 1001.39 1002.63 1003.74 1004.77 1005.70 1006.57 1007.41 1008.25 1009.10 1009.99 1010.87 1011.63 1012.41 1012.95 1013.68 1014.24 1014.66 1015.24 1015.78 1016.22 1016.83 1017.14 1017.32 1017.73 1017.89 1018.20 1018.23 1018.49 1018.68 1018.61 1018.62 1018.75 1018.84 1018.93 1019.01 1018.84 1019.01
1005.78 1004.74 1004.96 1004.39 1004.35 1004.35 1003.53 999.99 999.80 999.66 1000.23 1001.04 1001.51 1002.34 1003.58 1004.73 1005.59 1006.39 1007.27 1008.10 1008.90 1009.72 1010.63 1011.36 1012.20 1012.82 1013.56 1014.23 1014.71 1015.27 1015.68 1016.12 1016.70 1016.96 1017.14 1017.64 1017.95 1018.17 1018.22 1018.50 1018.66 1018.68 1018.76 1018.96 1019.02 1019.23 1019.36 1019.25 1019.25
Thickness
5725 5732 5736 5732 5715 5724 5726 5733 5746 5739 5740 5749 5747 5743 5740 5742 5733 5718 5732 5729 5731 5727 5716 5709 5706 5700 5695 5690 5687 5685 5682 5680 5678 5675 5673 5670 5668 5666 5665 5664 5663 5663 5663 5662 5660 5658 5656 5655 5653
5727 5732 5733 5731 5713 5718 5739 5747 5733 5744 5746 5746 5743 5741 5739 5735 5739 5728 5727 5727 5727 5723 5712 5706 5702 5697 5692 5688 5685 5682 5679 5677 5674 5671 5668 5665 5663 5662 5661 5660 5659 5657 5656 5655 5654 5653 5651 5648 5646
5724 5729 5724 5723 5724 5722 5734 5740 5745 5742 5743 5741 5738 5742 5741 5733 5736 5734 5732 5727 5725 5717 5709 5702 5699 5695 5690 5687 5683 5679 5676 5672 5669 5666 5663 5662 5661 5659 5658 5656 5654 5653 5652 5651 5650 5648 5646 5644 5643
5723 5726 5725 5711 5720 5733 5732 5741 5743 5738 5739 5741 5741 5734 5738 5735 5734 5736 5729 5726 5722 5711 5706 5700 5697 5693 5689 5684 5680 5677 5673 5670 5666 5663 5660 5659 5657 5655 5652 5652 5650 5648 5646 5645 5644 5643 5640 5639 5638
5721 5722 5712 5712 5721 5733 5739 5742 5738 5736 5741 5740 5739 5736 5733 5729 5732 5731 5727 5725 5720 5712 5703 5697 5694 5689 5686 5681 5677 5674 5670 5666 5663 5660 5657 5654 5652 5650 5648 5646 5644 5644 5642 5640 5639 5637 5635 5633 5631
5709 5717 5708 5711 5727 5734 5738 5744 5739 5736 5742 5738 5733 5735 5733 5729 5728 5728 5726 5723 5720 5713 5702 5696 5691 5687 5683 5679 5675 5671 5667 5663 5659 5656 5654 5652 5649 5646 5644 5642 5641 5640 5638 5636 5634 5632 5630 5628 5625
5704 5707 5710 5721 5722 5727 5735 5741 5733 5737 5739 5736 5742 5733 5732 5728 5727 5723 5725 5721 5717 5711 5703 5697 5692 5685 5681 5678 5674 5670 5665 5661 5656 5652 5649 5647 5645 5643 5640 5639 5638 5636 5633 5630 5628 5626 5624 5619 5615
5706 5710 5710 5716 5718 5722 5733 5731 5734 5733 5737 5742 5743 5735 5732 5733 5721 5720 5720 5717 5714 5709 5704 5700 5694 5688 5683 5677 5672 5668 5662 5657 5653 5649 5646 5644 5642 5639 5636 5634 5632 5629 5626 5623 5621 5618 5614 5610 5605
5701 5700 5706 5715 5714 5725 5728 5724 5733 5734 5732 5735 5738 5739 5734 5728 5718 5714 5711 5710 5709 5707 5704 5699 5695 5691 5685 5679 5671 5666 5660 5655 5651 5647 5644 5643 5640 5637 5633 5628 5625 5623 5619 5617 5613 5609 5604 5599 5596
5691 5699 5710 5722 5723 5720 5723 5721 5730 5725 5731 5731 5732 5731 5729 5721 5717 5713 5708 5706 5705 5705 5703 5699 5694 5689 5684 5678 5671 5667 5661 5657 5651 5645 5642 5639 5635 5630 5627 5626 5623 5619 5614 5612 5607 5603 5597 5591 5583
5691 5696 5712 5711 5710 5711 5714 5716 5725 5723 5726 5738 5739 5740 5728 5722 5720 5716 5714 5713 5710 5708 5703 5699 5694 5688 5683 5678 5672 5667 5662 5656 5650 5644 5640 5636 5632 5628 5626 5623 5619 5615 5610 5605 5599 5595 5587 5576 5566
5675 5695 5700 5698 5697 5699 5704 5717 5715 5723 5731 5742 5742 5744 5733 5727 5725 5724 5720 5719 5714 5709 5704 5698 5693 5687 5682 5677 5672 5667 5661 5654 5649 5643 5638 5635 5631 5626 5622 5619 5614 5610 5605 5598 5591 5585 5575 5564 5552
5669 5686 5691 5693 5692 5694 5702 5703 5709 5723 5735 5741 5738 5731 5734 5732 5731 5730 5727 5723 5718 5711 5705 5698 5692 5687 5681 5675 5669 5664 5658 5652 5646 5641 5636 5631 5628 5623 5619 5615 5610 5605 5600 5593 5587 5577 5564 5552 5538
5674 5677 5684 5691 5691 5694 5689 5702 5707 5727 5735 5737 5738 5731 5731 5734 5734 5731 5727 5722 5716 5711 5706 5700 5692 5686 5679 5674 5667 5661 5656 5649 5642 5637 5632 5627 5623 5619 5617 5614 5608 5601 5595 5588 5580 5570 5559 5545 5529
5662 5661 5679 5688 5687 5688 5690 5695 5709 5724 5729 5730 5729 5731 5733 5733 5734 5733 5730 5723 5716 5711 5705 5698 5690 5685 5679 5673 5665 5659 5653 5646 5640 5634 5629 5624 5620 5616 5612 5610 5605 5596 5592 5585 5575 5565 5553 5539 5524
5649 5655 5661 5688 5690 5681 5683 5703 5723 5724 5725 5727 5729 5734 5734 5732 5732 5733 5730 5724 5718 5712 5704 5695 5689 5682 5676 5670 5663 5656 5649 5643 5637 5631 5625 5619 5615 5612 5611 5607 5601 5594 5589 5582 5570 5561 5550 5535 5523
5643 5650 5662 5674 5674 5673 5673 5700 5717 5713 5714 5718 5730 5731 5733 5730 5729 5730 5727 5722 5718 5712 5703 5693 5686 5678 5672 5664 5659 5652 5646 5641 5635 5629 5623 5616 5612 5609 5608 5604 5598 5591 5587 5579 5568 5560 5550 5537 5524
5647 5648 5659 5661 5666 5660 5667 5683 5702 5713 5709 5712 5722 5726 5726 5727 5726 5728 5724 5719 5716 5711 5702 5692 5683 5676 5668 5660 5653 5648 5642 5637 5632 5628 5622 5615 5611 5607 5605 5602 5597 5590 5587 5579 5570 5562 5554 5543 5530
5640 5647 5650 5661 5654 5650 5666 5681 5694 5704 5711 5715 5717 5723 5725 5725 5729 5725 5719 5715 5711 5707 5700 5693 5683 5674 5666 5659 5652 5647 5643 5636 5629 5625 5618 5614 5608 5605 5602 5600 5596 5590 5585 5576 5569 5567 5560 5551 5540
5622 5627 5636 5647 5644 5641 5662 5674 5692 5697 5707 5713 5716 5722 5724 5723 5723 5716 5709 5707 5705 5702 5697 5689 5681 5671 5664 5659 5653 5648 5643 5635 5628 5622 5616 5611 5606 5602 5600 5597 5595 5590 5584 5577 5571 5567 5564 5558 5550
5615 5616 5623 5626 5629 5639 5640 5668 5696 5714 5713 5717 5721 5723 5727 5725 5718 5710 5705 5702 5701 5699 5694 5686 5678 5669 5663 5657 5649 5643 5636 5631 5625 5620 5615 5610 5605 5600 5597 5595 5593 5590 5585 5580 5573 5569 5568 5561 5556
5605 5620 5617 5616 5609 5616 5632 5649 5688 5705 5701 5704 5708 5710 5715 5713 5713 5714 5704 5699 5697 5694 5688 5680 5673 5666 5659 5653 5646 5642 5639 5634 5628 5622 5617 5609 5603 5599 5595 5593 5592 5589 5584 5580 5574 5571 5571 5568 5564
5603 5608 5603 5604 5601 5602 5620 5615 5676 5694 5690 5703 5715 5713 5711 5713 5705 5703 5697 5694 5693 5687 5680 5675 5667 5661 5655 5649 5644 5640 5635 5632 5626 5619 5615 5610 5603 5597 5594 5591 5590 5588 5584 5581 5576 5572 5574 5573 5572
5590 5589 5586 5588 5591 5583 5616 5618 5667 5688 5698 5705 5711 5712 5705 5701 5697 5695 5691 5688 5685 5679 5673 5668 5662 5656 5650 5645 5640 5635 5631 5627 5622 5617 5614 5609 5604 5597 5594 5591 5589 5587 5585 5582 5578 5573 5575 5573 5574
5579 5582 5561 5560 5563 5592 5617 5612 5661 5682 5695 5696 5700 5702 5698 5691 5689 5686 5681 5678 5675 5670 5667 5663 5657 5651 5645 5640 5636 5631 5628 5623 5619 5615 5613 5608 5603 5598 5594 5592 5588 5586 5584 5583 5581 5578 5576 5575 5574
5577 5586 5583 5576 5575 5604 5585 5611 5661 5681 5685 5683 5687 5689 5689 5682 5681 5679 5674 5672 5667 5663 5660 5657 5654 5647 5640 5636 5631 5627 5623 5620 5617 5613 5610 5607 5602 5595 5590 5590 5587 5584 5582 5581 5582 5580 5577 5574 5573
5566 5567 5590 5563 5535 5576 5611 5642 5663 5670 5670 5675 5675 5678 5679 5673 5673 5670 5669 5667 5662 5658 5653 5649 5648 5643 5636 5632 5626 5622 5618 5615 5611 5609 5604 5602 5597 5592 5588 5585 5585 5583 5581 5579 5579 5577 5576 5574 5572
5577 5585 5560 5563 5563 5562 5612 5634 5653 5661 5662 5671 5668 5667 5668 5666 5665 5664 5661 5658 5655 5651 5647 5642 5639 5634 5630 5627 5623 5617 5614 5610 5605 5602 5599 5597 5594 5589 5587 5582 5581 5580 5578 5577 5576 5574 5574 5572 5569
5561 5571 5582 5587 5592 5588 5600 5627 5668 5669 5675 5674 5671 5664 5663 5660 5658 5657 5655 5653 5649 5644 5639 5635 5630 5627 5622 5619 5617 5612 5608 5605 5599 5596 5595 5591 5588 5584 5584 5580 5578 5577 5576 5573 5572 5570 5569 5570 5567
5573 5586 5585 5582 5578 5590 5595 5628 5654 5663 5662 5655 5659 5661 5657 5653 5651 5650 5647 5644 5641 5637 5631 5627 5623 5620 5615 5612 5609 5605 5602 5599 5594 5592 5591 5586 5582 5580 5579 5576 5574 5573 5572 5569 5568 5565 5563 5564 5563